Precipitable_Water
0.60 0.59 0.56 0.53 0.53 0.53 0.54 0.55 0.54 0.52 0.51 0.54 0.54 0.53 0.54 0.60 0.67 0.73 0.69 0.71 0.55 0.42 0.42 0.51 0.54 0.48 0.50 0.50 0.39 0.45 0.47 0.52 0.52 0.39 0.36 0.33 0.31 0.32 0.30 0.33 0.30 0.31 0.32 0.32 0.36 0.30 0.24 0.55 0.51 0.45 0.53 0.55 0.56 0.55
0.59 0.63 0.63 0.61 0.60 0.58 0.57 0.58 0.57 0.56 0.54 0.52 0.55 0.54 0.55 0.57 0.65 0.73 0.64 0.74 0.70 0.51 0.43 0.51 0.61 0.63 0.62 0.61 0.52 0.53 0.49 0.49 0.54 0.45 0.41 0.35 0.28 0.33 0.30 0.24 0.39 0.30 0.41 0.37 0.42 0.40 0.57 0.64 0.60 0.65 0.61 0.56 0.56 0.57
0.56 0.58 0.59 0.60 0.59 0.60 0.59 0.61 0.61 0.61 0.59 0.55 0.53 0.54 0.56 0.58 0.62 0.68 0.67 0.70 0.66 0.53 0.49 0.46 0.42 0.60 0.67 0.69 0.72 0.48 0.59 0.61 0.59 0.63 0.52 0.49 0.37 0.43 0.31 0.32 0.37 0.44 0.55 0.45 0.48 0.59 0.62 0.64 0.67 0.68 0.65 0.62 0.63 0.60
0.57 0.57 0.58 0.58 0.59 0.61 0.63 0.62 0.63 0.63 0.62 0.59 0.56 0.55 0.57 0.61 0.63 0.66 0.66 0.70 0.64 0.56 0.40 0.43 0.56 0.49 0.61 0.65 0.68 0.66 0.59 0.65 0.64 0.67 0.55 0.48 0.39 0.53 0.39 0.42 0.40 0.47 0.51 0.50 0.52 0.60 0.62 0.64 0.66 0.63 0.61 0.60 0.57 0.51
0.61 0.59 0.55 0.57 0.62 0.65 0.65 0.65 0.65 0.65 0.63 0.60 0.59 0.57 0.59 0.61 0.66 0.69 0.72 0.71 0.72 0.54 0.39 0.39 0.52 0.55 0.54 0.55 0.57 0.64 0.59 0.51 0.45 0.40 0.40 0.40 0.50 0.48 0.46 0.42 0.35 0.47 0.44 0.45 0.45 0.63 0.63 0.61 0.65 0.65 0.58 0.57 0.49 0.42
0.58 0.62 0.61 0.59 0.59 0.62 0.67 0.68 0.67 0.67 0.64 0.62 0.62 0.61 0.63 0.65 0.69 0.67 0.51 0.69 0.73 0.64 0.44 0.34 0.48 0.48 0.53 0.51 0.46 0.44 0.52 0.58 0.54 0.48 0.44 0.45 0.51 0.44 0.34 0.28 0.39 0.44 0.49 0.58 0.60 0.67 0.66 0.65 0.64 0.61 0.57 0.47 0.41 0.31
0.58 0.59 0.60 0.60 0.61 0.65 0.68 0.69 0.68 0.66 0.65 0.64 0.64 0.65 0.67 0.68 0.68 0.56 0.48 0.58 0.70 0.67 0.46 0.36 0.36 0.46 0.51 0.50 0.48 0.45 0.47 0.52 0.54 0.50 0.44 0.44 0.45 0.47 0.36 0.26 0.38 0.43 0.54 0.60 0.64 0.63 0.58 0.61 0.57 0.56 0.47 0.39 0.28 0.20
0.61 0.60 0.60 0.59 0.60 0.63 0.68 0.68 0.68 0.67 0.67 0.66 0.67 0.67 0.69 0.72 0.71 0.61 0.67 0.71 0.70 0.58 0.51 0.35 0.33 0.37 0.49 0.39 0.36 0.47 0.40 0.42 0.45 0.43 0.42 0.38 0.42 0.41 0.27 0.35 0.41 0.47 0.52 0.55 0.58 0.62 0.63 0.62 0.54 0.46 0.38 0.25 0.17 0.12
0.61 0.61 0.61 0.60 0.63 0.63 0.66 0.68 0.68 0.67 0.67 0.68 0.68 0.70 0.70 0.64 0.54 0.57 0.71 0.72 0.70 0.57 0.40 0.35 0.28 0.27 0.46 0.40 0.42 0.40 0.42 0.31 0.40 0.34 0.36 0.35 0.32 0.26 0.29 0.32 0.41 0.48 0.47 0.50 0.56 0.61 0.59 0.50 0.44 0.35 0.22 0.17 0.12 0.10
0.62 0.63 0.61 0.60 0.63 0.66 0.67 0.68 0.68 0.69 0.69 0.69 0.67 0.56 0.45 0.56 0.70 0.70 0.62 0.51 0.51 0.52 0.48 0.34 0.38 0.30 0.38 0.37 0.35 0.36 0.37 0.30 0.24 0.30 0.36 0.26 0.22 0.30 0.31 0.32 0.41 0.50 0.50 0.53 0.53 0.53 0.47 0.40 0.30 0.20 0.15 0.12 0.11 0.10
0.63 0.63 0.60 0.61 0.64 0.67 0.68 0.69 0.70 0.71 0.71 0.61 0.49 0.46 0.59 0.71 0.59 0.51 0.41 0.39 0.41 0.36 0.41 0.39 0.37 0.32 0.44 0.31 0.33 0.38 0.33 0.33 0.23 0.26 0.25 0.23 0.18 0.22 0.28 0.39 0.46 0.50 0.51 0.54 0.59 0.52 0.46 0.30 0.19 0.14 0.12 0.11 0.11 0.10
0.64 0.62 0.59 0.61 0.64 0.68 0.69 0.69 0.70 0.67 0.59 0.56 0.57 0.63 0.61 0.52 0.45 0.37 0.34 0.38 0.35 0.29 0.36 0.35 0.36 0.39 0.41 0.44 0.36 0.38 0.31 0.32 0.22 0.35 0.28 0.21 0.23 0.29 0.33 0.37 0.42 0.46 0.52 0.56 0.56 0.47 0.31 0.22 0.15 0.12 0.12 0.11 0.10 0.10
0.64 0.61 0.58 0.61 0.65 0.68 0.70 0.71 0.69 0.68 0.67 0.63 0.53 0.45 0.44 0.41 0.31 0.28 0.24 0.27 0.27 0.33 0.36 0.36 0.34 0.39 0.42 0.42 0.36 0.33 0.27 0.24 0.33 0.25 0.21 0.20 0.26 0.31 0.34 0.35 0.39 0.48 0.53 0.57 0.47 0.31 0.22 0.16 0.12 0.11 0.11 0.12 0.12 0.11
0.61 0.59 0.59 0.62 0.68 0.69 0.68 0.68 0.68 0.67 0.59 0.45 0.38 0.30 0.34 0.29 0.31 0.28 0.27 0.28 0.33 0.34 0.34 0.34 0.33 0.34 0.38 0.34 0.34 0.26 0.30 0.32 0.23 0.18 0.15 0.20 0.22 0.26 0.33 0.40 0.45 0.48 0.54 0.43 0.30 0.20 0.17 0.12 0.11 0.12 0.12 0.13 0.11 0.11
0.58 0.58 0.63 0.66 0.68 0.67 0.66 0.68 0.67 0.64 0.52 0.41 0.38 0.28 0.30 0.33 0.33 0.32 0.33 0.33 0.35 0.37 0.34 0.33 0.35 0.35 0.33 0.31 0.32 0.30 0.25 0.21 0.21 0.15 0.18 0.22 0.30 0.37 0.42 0.46 0.48 0.50 0.41 0.29 0.22 0.17 0.13 0.11 0.11 0.11 0.13 0.12 0.12 0.12
0.62 0.62 0.61 0.65 0.67 0.67 0.66 0.66 0.62 0.58 0.49 0.41 0.36 0.29 0.31 0.29 0.28 0.30 0.30 0.29 0.36 0.36 0.37 0.36 0.31 0.29 0.27 0.27 0.25 0.22 0.21 0.17 0.19 0.24 0.30 0.34 0.38 0.43 0.47 0.50 0.47 0.39 0.28 0.23 0.18 0.15 0.12 0.11 0.11 0.12 0.12 0.13 0.13 0.13
0.62 0.57 0.64 0.66 0.65 0.65 0.65 0.58 0.54 0.46 0.42 0.36 0.32 0.34 0.31 0.28 0.25 0.27 0.30 0.30 0.37 0.31 0.26 0.29 0.25 0.24 0.32 0.26 0.23 0.27 0.21 0.20 0.23 0.27 0.31 0.32 0.36 0.43 0.48 0.42 0.36 0.27 0.23 0.20 0.16 0.12 0.11 0.12 0.13 0.12 0.12 0.12 0.13 0.13
0.57 0.61 0.64 0.65 0.64 0.62 0.57 0.55 0.47 0.42 0.34 0.36 0.31 0.31 0.34 0.33 0.30 0.30 0.32 0.34 0.32 0.28 0.27 0.23 0.28 0.24 0.22 0.20 0.20 0.22 0.27 0.30 0.32 0.32 0.35 0.38 0.42 0.46 0.36 0.30 0.27 0.25 0.22 0.17 0.13 0.12 0.13 0.12 0.12 0.12 0.13 0.13 0.14 0.14
0.59 0.62 0.63 0.62 0.58 0.51 0.46 0.47 0.48 0.33 0.35 0.38 0.39 0.39 0.37 0.35 0.37 0.38 0.37 0.38 0.37 0.36 0.32 0.29 0.25 0.22 0.21 0.23 0.22 0.29 0.34 0.37 0.38 0.39 0.41 0.44 0.46 0.35 0.28 0.28 0.27 0.24 0.19 0.14 0.12 0.12 0.12 0.13 0.13 0.14 0.14 0.14 0.13 0.14
0.64 0.64 0.65 0.64 0.61 0.48 0.41 0.42 0.50 0.37 0.32 0.36 0.39 0.37 0.39 0.39 0.42 0.41 0.41 0.42 0.41 0.38 0.33 0.29 0.26 0.28 0.29 0.34 0.38 0.40 0.44 0.49 0.50 0.49 0.50 0.50 0.35 0.27 0.27 0.27 0.25 0.21 0.15 0.14 0.14 0.13 0.13 0.14 0.14 0.14 0.14 0.14 0.13 0.13
0.61 0.62 0.64 0.62 0.55 0.50 0.44 0.41 0.39 0.41 0.40 0.37 0.42 0.42 0.39 0.43 0.42 0.42 0.42 0.48 0.41 0.37 0.35 0.38 0.39 0.44 0.48 0.49 0.54 0.55 0.52 0.57 0.58 0.49 0.35 0.25 0.26 0.27 0.27 0.27 0.23 0.17 0.14 0.14 0.12 0.13 0.14 0.13 0.13 0.14 0.14 0.14 0.14 0.15
0.57 0.62 0.57 0.58 0.48 0.46 0.43 0.46 0.41 0.45 0.41 0.39 0.40 0.41 0.38 0.37 0.39 0.43 0.48 0.43 0.43 0.45 0.47 0.47 0.48 0.50 0.52 0.53 0.54 0.59 0.54 0.43 0.33 0.26 0.27 0.26 0.23 0.24 0.25 0.22 0.17 0.15 0.14 0.13 0.13 0.13 0.13 0.14 0.15 0.15 0.15 0.15 0.16 0.16
0.58 0.56 0.51 0.50 0.41 0.40 0.38 0.50 0.39 0.41 0.34 0.36 0.40 0.36 0.36 0.38 0.42 0.49 0.40 0.43 0.46 0.52 0.53 0.52 0.52 0.51 0.48 0.47 0.43 0.35 0.32 0.25 0.23 0.25 0.25 0.25 0.26 0.26 0.24 0.20 0.16 0.15 0.14 0.14 0.15 0.14 0.14 0.15 0.15 0.15 0.16 0.16 0.16 0.15
0.54 0.46 0.40 0.38 0.39 0.35 0.42 0.38 0.42 0.39 0.39 0.36 0.34 0.32 0.35 0.38 0.44 0.39 0.36 0.42 0.47 0.49 0.47 0.42 0.39 0.32 0.29 0.27 0.25 0.25 0.25 0.27 0.25 0.24 0.25 0.24 0.23 0.22 0.20 0.17 0.17 0.17 0.16 0.16 0.16 0.15 0.15 0.15 0.16 0.16 0.16 0.16 0.15 0.15
0.34 0.33 0.35 0.32 0.37 0.34 0.33 0.34 0.35 0.35 0.32 0.34 0.32 0.33 0.36 0.40 0.35 0.33 0.33 0.39 0.43 0.40 0.34 0.33 0.29 0.26 0.23 0.22 0.24 0.25 0.27 0.26 0.23 0.22 0.24 0.23 0.20 0.18 0.18 0.19 0.19 0.19 0.19 0.17 0.16 0.16 0.16 0.17 0.17 0.17 0.16 0.16 0.16 0.15
0.25 0.28 0.26 0.30 0.33 0.32 0.33 0.31 0.33 0.33 0.34 0.32 0.31 0.35 0.37 0.33 0.31 0.28 0.32 0.36 0.32 0.27 0.25 0.22 0.21 0.21 0.21 0.23 0.21 0.21 0.22 0.24 0.24 0.20 0.20 0.21 0.19 0.17 0.17 0.17 0.17 0.18 0.20 0.19 0.18 0.17 0.17 0.18 0.17 0.17 0.17 0.17 0.17 0.16
0.24 0.25 0.30 0.36 0.34 0.34 0.34 0.37 0.38 0.36 0.33 0.29 0.31 0.31 0.30 0.25 0.24 0.29 0.33 0.30 0.24 0.24 0.26 0.26 0.22 0.20 0.19 0.20 0.21 0.21 0.22 0.22 0.20 0.20 0.21 0.22 0.21 0.20 0.19 0.17 0.18 0.20 0.22 0.21 0.21 0.20 0.19 0.19 0.18 0.18 0.17 0.18 0.18 0.17
0.29 0.30 0.25 0.31 0.34 0.37 0.34 0.35 0.33 0.32 0.32 0.33 0.32 0.24 0.19 0.16 0.17 0.23 0.25 0.29 0.28 0.26 0.25 0.25 0.25 0.23 0.20 0.21 0.22 0.22 0.22 0.23 0.22 0.22 0.22 0.22 0.23 0.23 0.22 0.22 0.23 0.23 0.23 0.23 0.23 0.22 0.21 0.20 0.19 0.18 0.18 0.18 0.18 0.19
0.28 0.31 0.29 0.25 0.27 0.30 0.31 0.30 0.29 0.32 0.30 0.23 0.17 0.14 0.15 0.20 0.24 0.25 0.28 0.29 0.30 0.28 0.23 0.21 0.20 0.23 0.24 0.25 0.25 0.25 0.24 0.23 0.20 0.18 0.17 0.17 0.18 0.20 0.21 0.21 0.21 0.21 0.23 0.23 0.24 0.23 0.22 0.22 0.21 0.20 0.19 0.19 0.19 0.19
0.29 0.32 0.27 0.26 0.23 0.22 0.24 0.25 0.24 0.27 0.26 0.23 0.21 0.20 0.20 0.23 0.28 0.33 0.31 0.30 0.29 0.28 0.27 0.25 0.23 0.22 0.22 0.22 0.21 0.21 0.23 0.23 0.22 0.20 0.19 0.18 0.19 0.21 0.21 0.20 0.20 0.21 0.23 0.24 0.23 0.23 0.23 0.23 0.21 0.20 0.19 0.19 0.19 0.18
0.30 0.29 0.26 0.24 0.21 0.24 0.26 0.28 0.28 0.27 0.25 0.22 0.21 0.19 0.19 0.23 0.28 0.31 0.31 0.32 0.31 0.30 0.27 0.24 0.24 0.24 0.23 0.21 0.21 0.21 0.21 0.24 0.25 0.26 0.26 0.25 0.24 0.22 0.21 0.21 0.21 0.22 0.23 0.24 0.23 0.23 0.22 0.20 0.19 0.19 0.18 0.18 0.18 0.18
0.25 0.23 0.22 0.20 0.21 0.26 0.28 0.25 0.23 0.21 0.22 0.21 0.20 0.22 0.22 0.21 0.20 0.25 0.31 0.32 0.30 0.28 0.28 0.28 0.27 0.26 0.27 0.28 0.28 0.29 0.29 0.29 0.29 0.29 0.29 0.28 0.27 0.25 0.23 0.22 0.23 0.23 0.23 0.23 0.23 0.22 0.21 0.19 0.19 0.19 0.18 0.18 0.18 0.19
0.23 0.23 0.22 0.21 0.21 0.21 0.22 0.21 0.20 0.19 0.20 0.19 0.19 0.21 0.20 0.20 0.19 0.25 0.33 0.36 0.34 0.34 0.33 0.32 0.33 0.33 0.33 0.34 0.34 0.33 0.33 0.32 0.32 0.31 0.30 0.30 0.28 0.24 0.23 0.24 0.24 0.23 0.23 0.22 0.22 0.21 0.20 0.20 0.19 0.19 0.19 0.19 0.19 0.19
Wind_Speed
53 57 60 61 62 61 61 60 60 59 58 58 57 57 55 54 54 52 46 49 44 40 36 33 31 30 29 29 26 26 24 26 23 24 23 23 23 22 22 21 19 18 18 18 19 19 23 20 20 20 22 24 23 23
49 50 53 56 58 59 60 60 60 60 60 59 58 57 56 56 55 54 46 48 46 41 37 40 31 31 30 29 28 28 25 23 24 22 24 22 22 22 21 21 19 20 20 19 19 19 20 22 22 24 25 23 24 24
48 49 50 51 53 55 57 59 59 60 60 60 58 57 56 56 56 56 49 47 45 40 39 38 39 34 31 29 28 27 26 25 24 23 22 21 23 20 21 22 21 21 21 21 19 22 26 23 23 25 24 23 23 22
47 48 50 51 51 52 54 56 58 59 59 59 59 57 55 55 55 57 51 48 48 39 37 36 39 37 36 32 28 27 28 26 25 24 24 23 23 22 22 23 22 22 19 21 24 24 21 25 24 21 20 20 19 20
43 47 48 49 49 49 51 53 55 56 56 57 57 56 55 54 53 53 50 49 50 42 32 36 34 37 38 36 33 30 28 28 29 29 29 27 26 25 26 26 26 24 23 23 25 24 24 22 21 21 20 20 19 18
39 42 46 48 48 47 48 51 52 52 52 53 54 54 54 54 53 49 41 50 50 48 36 30 33 35 34 34 36 34 31 28 28 27 28 28 27 26 25 25 25 26 26 26 26 23 23 21 21 20 18 17 17 18
40 40 42 44 46 46 48 49 50 50 49 50 50 51 51 51 51 49 41 41 50 46 37 33 32 31 32 33 33 30 32 29 27 26 28 27 25 25 26 28 26 27 26 24 22 21 21 22 21 18 16 15 16 18
41 40 42 43 45 47 48 48 48 49 48 47 47 47 48 48 47 45 40 38 45 41 35 32 30 30 30 27 29 33 31 32 31 29 27 27 26 27 27 26 25 22 21 21 22 22 21 18 15 14 13 14 16 19
42 43 41 43 45 47 49 48 48 49 48 47 46 45 42 43 40 41 42 41 40 36 34 32 32 29 31 27 25 24 27 29 30 31 30 27 28 29 25 23 21 21 21 20 19 18 16 14 13 13 13 15 17 20
40 45 43 44 45 47 48 49 49 49 48 48 46 39 34 41 42 39 35 37 34 33 33 30 30 29 28 26 25 24 25 25 25 28 27 30 33 32 29 27 25 24 21 18 16 16 15 14 13 13 14 16 18 20
40 44 43 45 46 48 48 50 51 51 50 45 39 35 36 45 38 33 30 33 29 30 33 32 31 28 27 24 23 24 23 23 23 25 26 25 26 25 27 25 23 22 20 19 18 16 14 12 11 12 14 15 17 19
43 45 43 45 47 48 51 51 53 51 45 46 41 39 39 34 30 30 31 30 28 29 30 32 29 27 25 23 21 23 23 22 22 21 23 24 22 21 20 21 21 20 19 17 15 13 11 11 11 12 13 15 17 19
47 44 44 45 48 49 52 52 52 49 50 45 38 34 30 30 29 30 32 31 28 29 29 29 27 25 22 23 21 21 22 23 20 22 23 22 18 18 19 20 19 18 16 13 12 11 10 10 10 11 13 14 17 19
44 45 45 45 48 50 51 54 54 50 45 36 34 29 27 29 29 30 31 30 27 26 28 27 24 22 22 23 21 21 23 20 22 22 22 19 22 22 20 19 18 16 15 14 13 11 10 9 10 11 13 14 17 19
44 45 45 46 50 51 52 53 49 43 37 34 27 27 28 27 26 28 27 27 26 27 26 21 21 20 21 21 22 21 21 22 21 19 19 19 18 17 17 17 17 15 15 14 12 10 9 9 9 11 12 14 17 19
42 42 43 49 51 50 51 45 47 35 29 30 24 22 26 26 24 25 27 26 26 27 23 20 20 20 22 22 22 24 23 20 16 16 14 13 14 15 15 16 16 16 15 13 11 9 9 9 9 10 12 15 17 19
39 39 47 48 47 47 44 37 37 29 25 24 24 23 23 23 26 24 25 27 31 29 26 23 23 23 20 22 25 24 23 21 21 19 17 16 15 15 15 16 17 16 14 12 10 9 8 8 8 10 12 15 17 20
41 43 44 45 43 39 35 31 26 23 24 22 21 22 22 22 24 24 24 28 28 27 27 26 25 26 26 25 24 23 21 20 20 18 16 15 15 14 16 18 17 15 13 10 9 8 8 8 9 11 13 15 18 20
40 42 43 39 38 34 28 25 22 21 21 22 21 20 19 21 22 24 25 31 27 28 27 26 26 27 27 24 22 20 19 18 16 16 16 15 15 16 19 18 16 13 12 10 9 8 8 9 10 11 13 15 18 21
38 37 35 33 32 25 21 20 20 19 20 20 20 20 18 17 19 22 25 25 25 26 26 27 26 23 20 20 20 18 17 17 16 15 16 16 18 20 19 17 14 12 10 9 8 8 8 9 10 12 14 16 19 21
32 29 29 27 23 20 17 20 17 16 18 18 18 17 17 19 19 19 21 22 23 23 21 21 21 20 20 17 15 15 17 18 17 16 19 19 20 19 16 14 13 11 10 9 9 9 9 10 11 12 14 17 19 21
25 25 24 22 19 16 15 15 17 15 13 15 16 16 17 17 18 19 20 20 21 21 21 20 18 18 17 17 17 15 15 17 17 18 20 21 18 16 15 13 12 10 10 10 9 9 9 10 11 12 15 17 19 21
22 21 18 16 14 12 13 13 13 14 14 14 14 14 15 16 17 19 18 18 18 18 18 18 17 15 14 15 16 17 20 21 20 20 19 17 15 13 12 11 11 10 9 9 9 9 10 10 11 13 15 17 19 21
18 16 14 13 12 12 14 12 12 13 13 13 14 14 15 16 17 16 15 17 17 18 17 16 17 17 17 18 20 20 20 20 19 18 17 15 13 11 11 10 10 9 9 9 9 9 10 11 12 14 16 18 20 21
14 11 11 10 11 12 12 12 12 11 12 14 15 15 16 16 15 14 15 16 19 18 17 19 19 19 20 20 20 19 19 18 17 16 14 13 11 10 10 9 9 9 9 9 10 11 11 12 13 14 16 18 20 21
10 9 10 11 11 12 13 13 12 13 14 13 14 15 15 14 14 14 15 18 19 19 20 21 21 20 19 19 18 17 16 16 15 13 12 12 12 11 10 9 9 10 10 11 11 12 12 13 14 15 17 19 20 21
9 8 10 10 10 12 11 10 12 13 14 15 16 16 15 14 13 13 16 18 18 19 21 21 20 19 18 17 16 15 15 14 13 12 12 12 11 11 10 9 10 10 11 11 12 13 13 14 15 16 18 19 20 21
9 8 10 10 11 11 13 14 14 15 15 15 16 15 14 14 12 13 15 17 20 21 20 19 18 18 17 16 15 14 13 12 11 10 10 10 10 10 10 10 10 10 11 12 13 13 14 15 16 17 18 19 21 22
8 10 11 11 12 12 12 12 12 12 13 15 15 15 13 11 10 13 16 19 21 21 19 18 17 17 16 15 13 13 13 12 11 11 11 11 11 12 11 11 11 11 12 12 13 14 15 16 17 18 19 20 21 22
9 10 11 12 11 10 10 10 12 13 14 14 14 15 13 11 10 13 17 18 19 19 18 17 17 16 15 14 13 12 12 12 12 12 12 13 13 12 13 13 13 13 13 13 14 15 15 16 17 18 19 20 21 22
10 10 10 11 11 11 12 12 12 13 13 13 13 14 14 13 12 11 13 16 17 17 17 16 15 15 15 14 14 13 12 13 13 12 11 11 12 13 13 14 14 14 15 15 15 16 17 17 18 19 20 21 22 23
9 9 11 12 12 12 11 11 11 12 12 13 12 12 13 13 11 11 11 14 16 16 15 15 15 15 14 14 14 13 13 14 14 13 12 12 13 14 14 14 15 15 15 16 16 17 18 18 19 20 21 22 23 24
10 10 11 12 11 11 12 12 11 11 11 11 11 12 12 13 12 12 10 11 14 15 15 15 14 14 14 14 14 14 13 14 14 14 14 14 14 14 15 15 15 15 16 16 17 18 18 19 20 21 22 23 24 25
Wind_Direction
225 225 225 225 225 225 224 223 222 222 221 220 219 219 218 218 218 217 223 220 222 226 229 230 233 233 232 231 233 235 235 238 240 240 246 251 256 258 263 263 264 267 271 281 285 278 285 297 293 286 295 297 299 299
223 222 221 221 221 222 222 221 220 220 219 218 218 218 218 218 217 217 222 220 222 226 230 229 231 231 232 233 231 233 235 236 235 239 245 254 256 258 259 266 267 269 269 283 275 278 292 296 293 291 295 296 298 300
221 220 219 219 219 219 219 219 218 218 217 217 217 217 217 217 216 216 219 218 218 223 228 228 228 230 231 232 232 232 236 235 238 241 244 248 254 254 258 263 265 273 274 283 284 286 291 288 291 296 294 294 297 298
221 220 219 218 218 217 217 217 216 216 215 216 215 215 215 214 214 214 217 217 215 222 225 229 228 229 230 231 232 233 233 237 238 243 246 249 250 255 259 267 266 267 275 281 281 289 290 290 290 294 295 296 296 301
219 217 216 214 214 215 215 213 212 211 212 212 212 212 212 211 210 211 216 216 215 216 224 226 228 229 230 231 233 235 237 241 244 246 246 250 252 257 261 266 265 265 270 276 281 282 289 293 289 289 291 293 295 300
213 211 211 211 211 212 210 206 205 205 206 206 207 207 207 206 205 205 213 216 214 215 223 225 229 228 228 230 232 234 238 240 241 242 245 247 252 256 259 263 265 264 272 275 278 284 288 287 288 289 291 292 298 304
210 208 207 206 206 204 200 200 200 200 200 200 201 201 201 202 202 205 212 215 209 211 219 224 226 227 226 229 232 234 232 235 237 241 243 246 249 252 260 263 268 271 270 275 275 281 286 282 285 284 285 292 301 308
205 204 203 201 199 198 196 195 195 194 194 194 194 195 196 197 199 205 210 204 201 207 215 220 224 223 222 227 230 231 233 235 239 243 245 246 249 251 258 261 270 271 269 271 272 280 282 279 275 277 283 293 302 309
203 200 197 195 193 192 191 190 189 189 188 187 187 186 188 194 198 201 201 199 202 209 212 217 217 222 220 226 229 230 232 235 238 239 242 243 245 246 252 260 259 260 269 271 278 278 274 265 266 274 284 294 304 311
192 189 189 187 186 185 184 184 183 182 181 178 176 181 188 190 185 183 193 197 205 212 214 217 215 219 219 223 227 227 230 233 234 238 238 244 248 248 253 259 261 258 261 265 273 266 260 259 264 273 286 299 308 314
180 181 180 180 179 178 177 176 175 173 172 173 177 180 181 175 183 191 194 197 203 208 210 213 215 213 219 221 223 224 227 229 236 235 233 243 247 249 250 251 252 252 254 266 272 258 251 256 261 278 293 303 310 315
173 173 172 172 173 172 172 171 170 169 174 174 173 168 170 181 187 192 194 196 203 205 207 206 208 211 214 216 218 219 224 226 234 224 233 241 245 248 249 243 242 248 252 269 252 238 243 253 268 285 296 305 312 318
162 165 166 167 168 167 167 167 168 166 163 164 168 174 182 184 188 191 193 198 200 201 200 200 202 208 211 215 217 218 223 229 225 229 236 241 246 245 246 248 246 244 248 246 228 230 241 257 276 289 300 308 316 322
156 159 161 162 163 164 163 164 163 164 167 172 172 179 184 188 194 198 196 195 196 193 191 195 201 208 211 210 214 218 225 225 230 234 241 250 249 248 246 242 233 235 234 219 219 225 241 259 280 295 305 311 319 324
150 152 155 155 158 160 161 162 163 165 171 171 176 184 188 189 191 191 189 189 193 191 189 194 200 205 206 210 216 218 220 227 231 240 253 257 245 234 233 230 227 223 211 211 216 229 248 268 284 299 307 315 322 325
143 147 152 151 152 155 158 161 166 167 172 180 183 182 183 187 188 190 192 190 189 188 190 195 200 205 211 213 213 218 221 228 240 246 250 241 231 229 226 222 211 205 202 208 219 232 251 270 285 298 311 319 322 326
140 145 146 147 151 153 157 158 167 174 177 181 189 192 192 197 199 200 199 202 198 198 206 208 208 213 213 220 224 225 233 242 247 248 253 248 231 223 219 206 197 195 200 208 220 238 256 272 287 303 313 318 323 327
138 143 146 149 151 151 160 167 171 180 186 186 188 192 195 197 195 195 196 192 198 207 210 218 220 223 225 227 236 243 243 245 243 241 235 226 224 219 203 192 190 194 201 212 228 243 258 273 289 303 313 319 325 328
136 139 143 148 153 153 157 166 172 172 176 181 184 185 188 193 198 199 202 203 212 213 216 220 223 226 229 233 232 235 234 231 224 223 223 221 212 198 187 187 190 197 205 219 233 249 263 278 293 304 314 321 326 328
141 141 144 147 154 157 159 165 170 174 178 181 184 187 188 190 191 196 197 202 206 209 214 218 220 219 221 225 226 224 217 213 216 219 221 208 195 184 185 189 196 202 214 228 242 253 270 287 297 307 316 322 327 329
139 146 150 155 156 157 161 168 169 175 179 183 184 188 194 194 195 198 199 201 205 205 204 205 206 211 214 218 217 214 219 227 215 201 191 186 183 184 187 194 201 212 224 234 244 258 271 286 299 309 317 323 326 329
145 147 154 157 157 160 159 168 175 173 177 181 192 199 199 203 203 201 192 193 193 195 198 202 206 210 213 218 216 216 202 189 185 178 174 175 180 186 193 200 208 222 230 239 248 261 277 289 299 309 317 322 326 329
146 147 148 152 157 161 169 171 177 184 182 182 182 180 181 180 179 175 180 185 187 191 195 199 202 204 197 190 183 179 175 171 172 173 174 177 183 189 197 207 217 224 234 247 254 268 281 290 300 309 316 321 325 329
152 155 157 161 163 164 165 164 166 165 170 173 170 167 169 170 172 176 182 184 183 181 180 178 176 173 171 168 166 166 168 170 170 173 178 182 190 200 207 214 223 233 242 249 261 274 283 292 300 307 314 320 324 327
157 165 167 169 171 167 167 166 166 165 167 168 163 164 165 165 167 172 175 173 173 172 170 167 165 165 163 163 164 168 172 175 177 181 189 195 198 204 212 223 234 242 248 258 272 280 288 292 298 305 312 318 322 325
160 170 168 171 171 168 169 168 171 168 163 164 164 164 164 161 161 168 169 167 167 167 167 166 164 164 166 170 171 175 179 181 185 191 200 204 208 212 219 229 245 257 259 266 276 284 288 292 297 303 310 315 320 325
155 160 162 165 169 168 169 170 165 164 164 163 164 161 161 161 169 168 167 169 169 168 168 168 169 171 172 174 176 179 181 186 194 201 205 210 216 222 230 242 255 265 265 272 279 285 288 291 297 302 309 315 319 322
153 153 159 160 154 155 154 153 157 160 160 158 157 158 157 162 164 167 169 169 167 166 168 170 173 176 177 179 181 183 188 192 196 201 207 219 227 234 243 255 268 271 273 279 284 289 292 294 297 302 307 312 317 320
146 150 147 143 143 143 147 152 155 158 160 161 161 163 162 161 166 170 169 170 170 172 173 176 179 180 182 185 190 196 199 205 211 221 228 234 241 247 250 259 269 277 280 284 289 293 295 299 301 304 307 311 316 320
153 155 152 153 151 151 158 161 161 163 164 166 168 166 162 160 159 165 169 173 177 180 182 185 187 190 193 198 203 211 218 226 232 235 235 241 247 250 252 260 269 276 280 285 291 295 299 301 304 307 309 312 316 319
163 160 158 160 162 158 155 151 151 160 169 164 162 167 169 168 161 160 170 178 181 184 187 192 197 202 204 210 215 222 232 236 235 238 244 249 251 254 259 265 271 276 280 285 290 294 298 301 303 305 308 310 313 316
178 178 173 169 169 171 169 169 168 166 169 172 174 176 178 179 179 182 189 192 193 196 199 202 205 212 215 219 224 232 239 235 237 242 248 257 261 262 266 270 274 277 281 286 291 295 297 299 302 304 307 309 312 314
178 175 171 175 181 183 185 179 176 177 178 182 185 187 188 190 193 199 199 199 201 204 206 210 214 216 220 225 231 237 242 242 242 248 255 262 265 266 269 272 275 278 283 287 291 294 296 299 302 304 306 308 311 314